User: anonymous   Login
Location: Vancouver
(49.2500°N, 123.1330°W)
Time: 09:50:21
(UTC-07:00)
Language:

Cosmos 676 Rocket - Orbit

View from above orbital plane
View from above orbital plane
View from above satellite
View from above satellite

Ground track
Ground track

The orbit data is extracted from the following two-line orbital elements,

1 07434U 74071B   16178.45121191 -.00000040  00000-0 -46701-5 0  9993
2 07434  74.0450 147.2903 0020180 148.8684 211.3669 14.36574691185622
Epoch (UTC): 26 June 2016 10:49:44
Eccentricity: 0.0020180
inclination: 74.0450°
perigee height: 755 km
apogee height: 784 km
right ascension of ascending node: 147.2903°
argument of perigee: 148.8684°
revolutions per day: 14.36574691
mean anomaly at epoch: 211.3669°
orbit number at epoch: 18562

The dashed part of the orbit path shows where the satellite is in the earth's shadow,  

DLR